DW4230 Weather Reports


Display with metric or nautical units.
time (UTC)temp
F
wind
direction
speed
MPH
gust
MPH
rain 1hr
in
rain 24hr
in
rain mn
in
humidity
%
barometer
mb
20200408000212 48 253 9.0 17.0 0.00 0.00 0.00 60 1007.2
20200407234627 49 272 9.0 21.0 0.00 0.00 0.00 61 1007.2
20200407233046 49 244 10.0 16.0 0.00 0.00 0.00 59 1007.1
20200407231527 49 222 9.0 18.0 0.00 0.00 0.00 58 1007.0
20200407230038 49 234 12.0 21.0 0.00 0.00 0.00 60 1007.1
20200407224517 50 264 10.0 18.0 0.00 0.00 0.00 58 1007.2
20200407223017 50 237 13.0 26.0 0.00 0.00 0.00 59 1007.2
20200407221548 50 239 11.0 27.0 0.00 0.00 0.00 59 1007.2
20200407220041 50 229 11.0 21.0 0.00 0.00 0.00 57 1007.2
20200407214546 51 254 9.0 19.0 0.00 0.00 0.00 57 1007.4
20200407213136 51 237 11.0 21.0 0.00 0.00 0.00 57 1007.4
20200407211650 51 216 14.0 23.0 0.00 0.00 0.00 61 1007.3
20200407204542 50 232 15.0 21.0 0.00 0.00 0.00 53 1007.4
20200407203024 51 242 14.0 24.0 0.00 0.00 0.00 59 1007.8
20200407201609 51 241 13.0 21.0 0.00 0.00 0.00 60 1008.0
20200407200011 51 206 14.0 25.0 0.00 0.00 0.00 61 1008.0
20200407194646 51 239 15.0 24.0 0.00 0.00 0.00 58 1008.3
20200407193059 52 206 11.0 25.0 0.00 0.00 0.00 59 1008.4
20200407191648 54 220 10.0 22.0 0.00 0.00 0.00 61 1008.4
20200407190151 53 233 11.0 22.0 0.00 0.00 0.00 61 1008.6
20200407184536 52 205 11.0 18.0 0.00 0.00 0.00 58 1008.9
20200407183106 52 243 10.0 20.0 0.00 0.00 0.00 57 1009.1
20200407181558 51 224 14.0 23.0 0.00 0.00 0.00 59 1009.7
20200407180135 52 243 13.0 24.0 0.00 0.00 0.00 61 1009.9
20200407174630 53 214 13.0 21.0 0.00 0.00 0.00 61 1010.2
20200407171711 51 264 13.0 18.0 0.00 0.00 0.00 59 1010.8
20200407170009 51 124 7.0 16.0 0.00 0.00 0.00 56 1011.0
20200407164541 51 220 11.0 17.0 0.00 0.00 0.00 57 1011.2
20200407163009 52 220 7.0 16.0 0.00 0.00 0.00 60 1011.2
20200407161542 52 240 8.0 18.0 0.00 0.00 0.00 61 1011.4
20200407160110 51 225 8.0 17.0 0.00 0.00 0.00 58 1011.7
20200407154518 52 202 7.0 15.0 0.00 0.00 0.00 61 1011.7
20200407153029 55 197 6.0 11.0 0.00 0.00 0.00 45 1011.9
20200407151623 56 235 4.0 10.0 0.00 0.00 0.00 38 1012.0
20200407150149 55 268 4.0 8.0 0.00 0.00 0.00 35 1012.2
20200407144608 55 287 0.0 7.0 0.00 0.00 0.00 36 1012.5
20200407143038 55 291 1.0 7.0 0.00 0.00 0.00 38 1012.6
20200407141544 55 289 1.0 9.0 0.00 0.00 0.00 36 1012.7
20200407140116 55 352 3.0 12.0 0.00 0.00 0.00 38 1012.8
20200407134722 54 353 6.0 11.0 0.00 0.00 0.00 40 1012.7
20200407133014 53 335 4.0 10.0 0.00 0.00 0.00 40 1012.5
20200407131528 53 331 4.0 11.0 0.00 0.00 0.00 40 1012.6
20200407130125 51 333 1.0 8.0 0.00 0.00 0.00 46 1012.7
20200407124620 49 328 1.0 11.0 0.00 0.00 0.00 46 1012.7
20200407123053 49 327 2.0 7.0 0.00 0.00 0.00 47 1012.8
20200407121655 49 328 3.0 10.0 0.00 0.00 0.00 46 1013.0
20200407111518 47 329 3.0 10.0 0.00 0.00 0.00 48 1012.9
20200407110115 47 326 3.0 10.0 0.00 0.00 0.00 48 1012.9
20200407104524 47 341 3.0 8.0 0.00 0.00 0.00 49 1012.9
20200407103022 47 304 2.0 6.0 0.00 0.00 0.00 51 1012.5
20200407101535 46 298 0.0 3.0 0.00 0.00 0.00 53 1012.4
20200407100021 46 297 0.0 5.0 0.00 0.00 0.00 51 1012.2
20200407094535 46 295 0.0 0.0 0.00 0.00 0.00 57 1012.3
20200407093040 46 295 0.0 4.0 0.00 0.00 0.00 56 1012.3
20200407091627 46 295 0.0 0.0 0.00 0.00 0.00 56 1012.4
20200407090144 46 293 0.0 0.0 0.00 0.00 0.00 56 1012.3
20200407084557 47 293 0.0 6.0 0.00 0.00 0.00 56 1012.3
20200407083140 46 333 1.0 4.0 0.00 0.00 0.00 56 1012.5
20200407081620 47 333 0.0 7.0 0.00 0.00 0.00 54 1012.5
20200407080049 47 333 2.0 6.0 0.00 0.00 0.00 53 1012.4
20200407074544 47 333 1.0 7.0 0.00 0.00 0.00 53 1012.3
20200407073054 47 337 4.0 9.0 0.00 0.00 0.00 52 1012.4
20200407071551 47 341 4.0 10.0 0.00 0.00 0.00 52 1012.3
20200407070104 47 342 3.0 10.0 0.00 0.00 0.00 53 1012.2
20200407064720 47 338 3.0 9.0 0.00 0.00 0.00 57 1012.1
20200407063325 47 318 1.0 10.0 0.00 0.00 0.00 60 1012.3
20200407061702 46 307 2.0 7.0 0.00 0.00 0.00 63 1012.4
20200407060103 45 316 0.0 4.0 0.00 0.00 0.00 55 1012.5
20200407054554 44 317 2.0 6.0 0.00 0.00 0.00 34 1012.4
20200407053149 44 319 0.0 5.0 0.00 0.00 0.00 100 1012.6
20200407051532 44 258 3.0 7.0 0.00 0.00 0.00 100 1012.7
20200407050053 44 257 4.0 7.0 0.00 0.00 0.00 100 1012.7
20200407044549 44 257 0.0 0.0 0.00 0.00 0.00 100 1012.7
20200407043144 44 257 0.0 0.0 0.00 0.00 0.00 100 1012.6
20200407041711 44 257 0.0 0.0 0.00 0.00 0.00 100 1012.6
20200407040053 44 257 0.0 0.0 0.00 0.00 0.00 100 1012.7
20200407034510 44 257 0.0 5.0 0.00 0.00 0.00 100 1012.7
20200407033045 45 257 0.0 5.0 0.00 0.00 0.00 100 1012.7
20200407031534 45 257 2.0 8.0 0.00 0.00 0.00 100 1012.9
20200407030102 45 241 3.0 9.0 0.00 0.00 0.00 100 1012.8
20200407024610 45 249 5.0 10.0 0.00 0.00 0.00 100 1012.9
20200407023140 45 124 7.0 11.0 0.00 0.00 0.00 100 1013.2
20200407021600 45 210 5.0 10.0 0.00 0.00 0.00 100 1013.2
20200407020218 45 226 7.0 12.0 0.00 0.00 0.00 100 1013.1
20200407014601 45 220 7.0 13.0 0.00 0.00 0.00 100 1013.3
20200407013105 45 239 7.0 12.0 0.00 0.00 0.00 100 1013.3
20200407011658 45 235 7.0 13.0 0.00 0.00 0.00 100 1013.4
20200407010059 45 200 8.0 14.0 0.00 0.00 0.00 100 1013.3
20200407004713 45 199 8.0 14.0 0.00 0.00 0.00 100 1013.4
20200407003209 45 195 7.0 13.0 0.00 0.00 0.00 100 1013.3
20200407001653 45 201 7.0 13.0 0.00 0.00 0.00 100 1013.2